EWG6905 EDDL-EDDB

Flight info

Callsign EWG6905
Flight time 0h 47m
Altitude 27000
Route MEVEL1Z/05R MEVEL L179 MISRI Z851 ROBEG DCT BATEL T207 OGBER OGBER1R
Aircraft A320/M-SDE3FGHIRWY/LB1

Departure

Time 2026-04-30 20:42
Airport Düsseldorf Airport (EDDL)

Arrival

Time 2026-04-30 21:29
Airport Berlin Brandenburg Airport (EDDB)
Time Latitude Longitude Altitude Speed Heading
2026-04-30 20:22 51.28037 6.76366 127 ft 0 kts 197°
2026-04-30 20:32 51.28038 6.76366 128 ft 1 kts 197°
2026-04-30 20:32 51.28074 6.76380 123 ft 3 kts 187°
2026-04-30 20:33 51.28094 6.76382 123 ft 3 kts 176°
2026-04-30 20:33 51.28128 6.76363 123 ft 2 kts 120°
2026-04-30 20:33 51.28136 6.76340 125 ft 3 kts 117°
2026-04-30 20:34 51.28151 6.76281 124 ft 3 kts 88°
2026-04-30 20:34 51.28138 6.76229 125 ft 3 kts 56°
2026-04-30 20:35 51.28126 6.76203 123 ft 3 kts 52°
2026-04-30 20:35 51.28120 6.76190 124 ft 0 kts 52°
2026-04-30 20:36 51.28127 6.76205 123 ft 6 kts 53°
2026-04-30 20:37 51.28187 6.76244 126 ft 12 kts 335°
2026-04-30 20:37 51.28187 6.76148 125 ft 8 kts 240°
2026-04-30 20:37 51.28157 6.76081 126 ft 7 kts 233°
2026-04-30 20:37 51.28132 6.76028 127 ft 6 kts 233°
2026-04-30 20:38 51.28100 6.75960 128 ft 11 kts 233°
2026-04-30 20:38 51.28044 6.75839 128 ft 17 kts 233°
2026-04-30 20:38 51.27978 6.75705 125 ft 15 kts 232°
2026-04-30 20:39 51.27859 6.75453 121 ft 14 kts 233°
2026-04-30 20:39 51.27858 6.75339 122 ft 11 kts 321°
2026-04-30 20:39 51.27922 6.75285 121 ft 10 kts 338°
2026-04-30 20:40 51.28016 6.75317 122 ft 5 kts 51°
2026-04-30 20:40 51.28031 6.75348 124 ft 2 kts 51°
2026-04-30 20:40 51.28036 6.75358 124 ft 0 kts 51°
2026-04-30 20:41 51.28046 6.75378 124 ft 15 kts 54°
2026-04-30 20:41 51.28273 6.75856 128 ft 90 kts 52°
2026-04-30 20:41 51.28776 6.76913 127 ft 146 kts 52°
2026-04-30 20:41 51.29432 6.78305 627 ft 153 kts 56°
2026-04-30 20:42 51.30026 6.79677 1325 ft 150 kts 61°
2026-04-30 20:42 51.30680 6.81081 1673 ft 167 kts 60°
2026-04-30 20:42 51.32262 6.84418 2037 ft 207 kts 60°
2026-04-30 20:43 51.33177 6.86337 2258 ft 224 kts 59°
2026-04-30 20:43 51.34157 6.88341 2916 ft 234 kts 53°
2026-04-30 20:43 51.35456 6.90007 3690 ft 246 kts 36°
2026-04-30 20:44 51.38824 6.91719 5187 ft 265 kts 22°
2026-04-30 20:44 51.40585 6.92757 5889 ft 272 kts 26°
2026-04-30 20:44 51.44078 6.95264 7515 ft 277 kts 36°
2026-04-30 20:45 51.47344 6.98623 9182 ft 282 kts 37°
2026-04-30 20:45 51.48979 7.00326 10002 ft 285 kts 37°
2026-04-30 20:45 51.50651 7.02074 10712 ft 292 kts 37°
2026-04-30 20:46 51.56350 7.08066 11340 ft 360 kts 36°
2026-04-30 20:46 51.58514 7.10335 11516 ft 379 kts 36°
2026-04-30 20:47 51.63016 7.15032 12649 ft 390 kts 36°
2026-04-30 20:47 51.65300 7.17410 13292 ft 393 kts 36°
2026-04-30 20:48 51.69929 7.22255 14472 ft 399 kts 36°
2026-04-30 20:48 51.72266 7.24714 15010 ft 402 kts 37°
2026-04-30 20:48 51.74418 7.27556 15518 ft 399 kts 51°
2026-04-30 20:48 51.75951 7.31197 16051 ft 396 kts 66°
2026-04-30 20:49 51.76963 7.35352 16591 ft 397 kts 71°
2026-04-30 20:49 51.77918 7.39547 17104 ft 400 kts 71°
2026-04-30 20:49 51.78869 7.43778 17593 ft 402 kts 71°
2026-04-30 20:50 51.80789 7.52357 18547 ft 408 kts 71°
2026-04-30 20:50 51.81764 7.56699 18973 ft 411 kts 71°
2026-04-30 20:50 51.82746 7.61067 19378 ft 414 kts 71°
2026-04-30 20:50 51.83732 7.65456 19776 ft 417 kts 71°
2026-04-30 20:51 51.84714 7.69837 20144 ft 420 kts 71°
2026-04-30 20:51 51.86705 7.78772 20912 ft 425 kts 71°
2026-04-30 20:51 51.87708 7.83272 21415 ft 421 kts 70°
2026-04-30 20:52 51.88680 7.87639 22347 ft 405 kts 70°
2026-04-30 20:52 51.89638 7.91965 22626 ft 412 kts 70°
2026-04-30 20:52 51.91609 8.00895 22893 ft 429 kts 70°
2026-04-30 20:53 51.92621 8.05495 23070 ft 436 kts 70°
2026-04-30 20:53 51.93643 8.10136 23349 ft 439 kts 70°
2026-04-30 20:53 51.94670 8.14814 23662 ft 441 kts 70°
2026-04-30 20:54 51.96708 8.24169 24393 ft 442 kts 70°
2026-04-30 20:54 51.97723 8.28860 24774 ft 441 kts 70°
2026-04-30 20:54 51.98736 8.33549 25161 ft 440 kts 70°
2026-04-30 20:55 52.00757 8.42891 26013 ft 437 kts 69°
2026-04-30 20:55 52.01763 8.47539 26414 ft 436 kts 69°
2026-04-30 20:55 52.02767 8.52194 26804 ft 436 kts 69°
2026-04-30 20:56 52.04740 8.61423 27376 ft 436 kts 70°
2026-04-30 20:56 52.05741 8.66109 27414 ft 435 kts 69°
2026-04-30 20:56 52.07729 8.75409 27416 ft 435 kts 70°
2026-04-30 20:57 52.08718 8.80061 27417 ft 435 kts 70°
2026-04-30 20:57 52.09704 8.84710 27420 ft 435 kts 70°
2026-04-30 20:57 52.10671 8.89279 27430 ft 434 kts 69°
2026-04-30 20:58 52.12624 8.98589 27431 ft 420 kts 70°
2026-04-30 20:58 52.13551 9.03046 27431 ft 423 kts 70°
2026-04-30 20:58 52.14498 9.07586 27432 ft 429 kts 70°
2026-04-30 20:58 52.15463 9.12197 27434 ft 431 kts 70°
2026-04-30 20:59 52.17359 9.21274 27428 ft 419 kts 69°
2026-04-30 20:59 52.18308 9.25829 27435 ft 428 kts 70°
2026-04-30 21:00 52.20115 9.34591 27408 ft 392 kts 70°
2026-04-30 21:00 52.21882 9.43187 27434 ft 413 kts 70°
2026-04-30 21:01 52.23757 9.52321 27433 ft 433 kts 70°
2026-04-30 21:01 52.24722 9.57037 27434 ft 442 kts 70°
2026-04-30 21:01 52.26684 9.66689 27437 ft 458 kts 70°
2026-04-30 21:02 52.27687 9.71657 27436 ft 465 kts 70°
2026-04-30 21:02 52.28706 9.76702 27435 ft 468 kts 70°
2026-04-30 21:02 52.29727 9.81761 27436 ft 469 kts 70°
2026-04-30 21:02 52.30749 9.86838 27435 ft 469 kts 70°
2026-04-30 21:03 52.31422 9.90190 27436 ft 469 kts 70°
2026-04-30 21:03 52.32299 9.95335 27442 ft 471 kts 78°
2026-04-30 21:03 52.32448 10.00693 27435 ft 474 kts 91°
2026-04-30 21:03 52.32228 10.06078 27434 ft 475 kts 91°
2026-04-30 21:04 52.31987 10.11471 27437 ft 475 kts 92°
2026-04-30 21:04 52.31732 10.16858 27437 ft 475 kts 92°
2026-04-30 21:04 52.31206 10.27570 27437 ft 475 kts 92°
2026-04-30 21:05 52.30942 10.32965 27435 ft 475 kts 92°
2026-04-30 21:05 52.30684 10.38345 27436 ft 475 kts 92°
2026-04-30 21:05 52.30428 10.43724 27436 ft 475 kts 92°
2026-04-30 21:05 52.30169 10.49098 27455 ft 475 kts 91°
2026-04-30 21:06 52.29906 10.54477 27453 ft 474 kts 91°
2026-04-30 21:06 52.29641 10.59857 27450 ft 474 kts 91°
2026-04-30 21:06 52.29375 10.65216 27447 ft 474 kts 91°
2026-04-30 21:06 52.29104 10.70581 27444 ft 474 kts 92°
2026-04-30 21:07 52.28827 10.75941 27442 ft 474 kts 92°
2026-04-30 21:07 52.28548 10.81305 27441 ft 474 kts 92°
2026-04-30 21:07 52.28272 10.86602 27439 ft 474 kts 92°
2026-04-30 21:07 52.27992 10.91971 27437 ft 474 kts 92°
2026-04-30 21:08 52.27708 10.97317 27194 ft 469 kts 91°
2026-04-30 21:08 52.27426 11.02587 26493 ft 463 kts 91°
2026-04-30 21:08 52.27146 11.07818 26240 ft 462 kts 91°
2026-04-30 21:08 52.26864 11.13054 25992 ft 462 kts 91°
2026-04-30 21:09 52.26581 11.18277 25748 ft 462 kts 91°
2026-04-30 21:09 52.26298 11.23499 25504 ft 462 kts 92°
2026-04-30 21:09 52.26010 11.28736 25262 ft 462 kts 92°
2026-04-30 21:09 52.25721 11.33888 25028 ft 462 kts 92°
2026-04-30 21:10 52.25426 11.39095 24789 ft 461 kts 92°
2026-04-30 21:10 52.25131 11.44291 24574 ft 459 kts 91°
2026-04-30 21:10 52.24835 11.49476 24361 ft 456 kts 92°
2026-04-30 21:10 52.24537 11.54618 23312 ft 454 kts 92°
2026-04-30 21:11 52.24235 11.59711 22417 ft 444 kts 92°
2026-04-30 21:11 52.23935 11.64669 21639 ft 431 kts 92°
2026-04-30 21:11 52.23647 11.69423 20877 ft 423 kts 92°
2026-04-30 21:11 52.23367 11.74148 20125 ft 416 kts 92°
2026-04-30 21:12 52.23094 11.78846 19383 ft 414 kts 92°
2026-04-30 21:12 52.22822 11.83516 18656 ft 412 kts 92°
2026-04-30 21:12 52.22546 11.88148 17885 ft 409 kts 92°
2026-04-30 21:12 52.22266 11.92751 17217 ft 404 kts 92°
2026-04-30 21:13 52.21987 11.97294 16527 ft 400 kts 92°
2026-04-30 21:13 52.21704 12.01794 15874 ft 395 kts 93°
2026-04-30 21:13 52.21423 12.06230 15250 ft 391 kts 93°
2026-04-30 21:13 52.21148 12.10558 14642 ft 387 kts 93°
2026-04-30 21:14 52.20871 12.14892 14040 ft 382 kts 94°
2026-04-30 21:14 52.20598 12.19172 13431 ft 377 kts 94°
2026-04-30 21:14 52.20329 12.23393 12861 ft 370 kts 94°
2026-04-30 21:14 52.20066 12.27460 12307 ft 357 kts 94°
2026-04-30 21:15 52.19810 12.31435 11832 ft 341 kts 93°
2026-04-30 21:15 52.19570 12.35118 11688 ft 312 kts 93°
2026-04-30 21:15 52.19347 12.38499 11565 ft 288 kts 93°
2026-04-30 21:15 52.19139 12.41663 11254 ft 275 kts 92°
2026-04-30 21:16 52.18941 12.44728 10957 ft 270 kts 92°
2026-04-30 21:16 52.18749 12.47663 10717 ft 256 kts 92°
2026-04-30 21:16 52.18560 12.50494 10466 ft 248 kts 92°
2026-04-30 21:16 52.18377 12.53283 10310 ft 246 kts 92°
2026-04-30 21:17 52.18197 12.56047 10166 ft 245 kts 92°
2026-04-30 21:17 52.18016 12.58807 9915 ft 243 kts 92°
2026-04-30 21:17 52.17837 12.61471 9785 ft 235 kts 92°
2026-04-30 21:17 52.17658 12.64111 9646 ft 233 kts 92°
2026-04-30 21:18 52.17476 12.66851 9594 ft 260 kts 92°
2026-04-30 21:18 52.17283 12.69786 9907 ft 252 kts 92°
2026-04-30 21:18 52.17132 12.72553 9676 ft 242 kts 86°
2026-04-30 21:18 52.17334 12.75266 9506 ft 248 kts 73°
2026-04-30 21:19 52.17893 12.77864 9372 ft 239 kts 67°
2026-04-30 21:19 52.18507 12.80373 9050 ft 237 kts 67°
2026-04-30 21:19 52.19110 12.82843 8707 ft 237 kts 67°
2026-04-30 21:19 52.19719 12.85335 8368 ft 237 kts 67°
2026-04-30 21:20 52.20326 12.87826 7981 ft 235 kts 67°
2026-04-30 21:20 52.20928 12.90294 7546 ft 235 kts 67°
2026-04-30 21:20 52.21532 12.92770 7068 ft 235 kts 68°
2026-04-30 21:20 52.22138 12.95254 6507 ft 235 kts 68°
2026-04-30 21:21 52.22721 12.97724 5950 ft 236 kts 68°
2026-04-30 21:21 52.23319 13.00224 5399 ft 236 kts 68°
2026-04-30 21:21 52.24516 13.05155 4653 ft 222 kts 68°
2026-04-30 21:22 52.25061 13.07402 4595 ft 203 kts 68°
2026-04-30 21:22 52.26415 13.12991 4407 ft 155 kts 67°
2026-04-30 21:23 52.26803 13.14593 4284 ft 150 kts 67°
2026-04-30 21:23 52.27182 13.16164 4110 ft 146 kts 67°
2026-04-30 21:23 52.27906 13.19160 3741 ft 137 kts 67°
2026-04-30 21:24 52.28253 13.20593 3578 ft 138 kts 68°
2026-04-30 21:24 52.28601 13.22047 3357 ft 137 kts 66°
2026-04-30 21:24 52.28972 13.23561 3210 ft 147 kts 67°
2026-04-30 21:24 52.29345 13.25139 3034 ft 149 kts 68°
2026-04-30 21:25 52.30075 13.28310 2551 ft 149 kts 67°
2026-04-30 21:25 52.30453 13.29877 2290 ft 147 kts 66°
2026-04-30 21:25 52.30842 13.31422 2141 ft 149 kts 66°
2026-04-30 21:26 52.31593 13.34519 1715 ft 146 kts 66°
2026-04-30 21:26 52.31961 13.36043 1517 ft 141 kts 66°
2026-04-30 21:27 52.32658 13.38967 1120 ft 136 kts 65°
2026-04-30 21:27 52.32987 13.40351 1020 ft 128 kts 66°
2026-04-30 21:27 52.33308 13.41701 894 ft 127 kts 66°
2026-04-30 21:28 52.33957 13.44426 529 ft 131 kts 67°
2026-04-30 21:28 52.34297 13.45832 334 ft 135 kts 68°
2026-04-30 21:28 52.34949 13.48528 155 ft 109 kts 68°
2026-04-30 21:29 52.35165 13.49423 154 ft 60 kts 69°
2026-04-30 21:29 52.35624 13.50182 154 ft 30 kts 338°
2026-04-30 21:30 52.35844 13.50043 154 ft 7 kts 339°
2026-04-30 21:31 52.35939 13.50000 154 ft 3 kts 20°
2026-04-30 21:31 52.35958 13.50045 154 ft 2 kts 64°
2026-04-30 21:32 52.35973 13.50104 154 ft 2 kts 69°
2026-04-30 21:32 52.35974 13.50107 154 ft 0 kts 69°